TimeCDT,TemperatureF,Dew PointF,Humidity,Sea Level PressureIn,VisibilityMPH,Wind Direction,Wind SpeedMPH,Gust SpeedMPH,PrecipitationIn,Events,Conditions,WindDirDegrees,DateUTC
12:15 AM,41.0,27.3,58,30.09,10.0,SSW,16.1,20.7,N/A,,Scattered Clouds,210,2013-10-26 05:15:00
12:35 AM,40.6,27.1,59,30.08,10.0,SSW,18.4,-,N/A,,Scattered Clouds,210,2013-10-26 05:35:00
12:55 AM,40.5,27.0,59,30.08,10.0,SW,17.3,21.9,N/A,,Clear,220,2013-10-26 05:55:00
1:15 AM,40.1,26.6,59,30.07,10.0,SW,17.3,24.2,N/A,,Clear,220,2013-10-26 06:15:00
1:35 AM,39.6,26.8,60,30.06,10.0,SSW,13.8,21.9,N/A,,Clear,210,2013-10-26 06:35:00
1:55 AM,39.0,26.8,62,30.05,10.0,SSW,10.4,-,N/A,,Clear,210,2013-10-26 06:55:00
2:15 AM,39.2,26.6,61,30.04,10.0,SW,13.8,-,N/A,,Clear,220,2013-10-26 07:15:00
2:35 AM,40.1,26.2,58,30.03,10.0,SSW,15.0,21.9,N/A,,Mostly Cloudy,210,2013-10-26 07:35:00
2:55 AM,40.6,26.4,57,30.02,10.0,SW,16.1,20.7,N/A,,Overcast,220,2013-10-26 07:55:00
3:15 AM,41.4,25.9,54,30.00,10.0,SW,17.3,27.6,N/A,,Overcast,220,2013-10-26 08:15:00
3:35 AM,41.9,25.7,53,29.98,10.0,SW,12.7,27.6,N/A,,Overcast,220,2013-10-26 08:35:00
3:55 AM,41.9,25.7,53,29.97,10.0,SW,17.3,25.3,N/A,,Overcast,220,2013-10-26 08:55:00
4:15 AM,41.9,25.9,53,29.96,10.0,SW,13.8,19.6,N/A,,Overcast,220,2013-10-26 09:15:00
4:35 AM,42.1,25.7,52,29.95,10.0,SW,16.1,27.6,N/A,,Overcast,220,2013-10-26 09:35:00
4:55 AM,42.6,26.2,52,29.94,10.0,SW,17.3,24.2,N/A,,Overcast,220,2013-10-26 09:55:00
5:15 AM,42.3,26.6,54,29.94,10.0,SW,17.3,25.3,N/A,,Overcast,220,2013-10-26 10:15:00
5:35 AM,42.3,26.8,54,29.92,10.0,SW,17.3,24.2,N/A,,Overcast,220,2013-10-26 10:35:00
5:55 AM,42.3,27.3,56,29.92,10.0,SW,16.1,24.2,N/A,,Overcast,220,2013-10-26 10:55:00
6:15 AM,42.4,27.7,56,29.91,10.0,SW,13.8,21.9,N/A,,Overcast,220,2013-10-26 11:15:00
6:35 AM,42.8,28.0,56,29.91,10.0,SW,13.8,-,N/A,,Overcast,220,2013-10-26 11:35:00
6:55 AM,43.7,27.5,53,29.91,10.0,SW,16.1,24.2,N/A,,Overcast,230,2013-10-26 11:55:00
7:15 AM,43.7,27.7,53,29.91,10.0,SW,17.3,25.3,N/A,,Overcast,230,2013-10-26 12:15:00
7:35 AM,43.7,28.2,54,29.90,10.0,SW,13.8,21.9,N/A,,Overcast,230,2013-10-26 12:35:00
7:55 AM,43.9,28.4,55,29.90,10.0,SW,15.0,21.9,N/A,,Overcast,230,2013-10-26 12:55:00
8:15 AM,43.9,28.9,56,29.90,10.0,SW,15.0,20.7,N/A,,Overcast,230,2013-10-26 13:15:00
8:35 AM,43.9,29.3,57,29.88,10.0,SW,17.3,20.7,N/A,,Overcast,220,2013-10-26 13:35:00
8:55 AM,44.8,30.0,56,29.89,10.0,WSW,15.0,-,N/A,,Overcast,240,2013-10-26 13:55:00
9:15 AM,45.1,30.2,56,29.88,10.0,WSW,15.0,21.9,N/A,,Overcast,240,2013-10-26 14:15:00
9:35 AM,47.3,31.3,54,29.89,10.0,WSW,23.0,27.6,N/A,,Mostly Cloudy,250,2013-10-26 14:35:00
9:55 AM,47.1,31.1,54,29.88,10.0,WSW,15.0,21.9,N/A,,Mostly Cloudy,240,2013-10-26 14:55:00
10:15 AM,48.7,32.0,52,29.88,10.0,WSW,15.0,18.4,N/A,,Scattered Clouds,250,2013-10-26 15:15:00
10:35 AM,51.1,32.0,48,29.87,10.0,WSW,19.6,23.0,N/A,,Clear,250,2013-10-26 15:35:00
10:55 AM,51.1,32.4,49,29.88,10.0,West,19.6,23.0,N/A,,Clear,260,2013-10-26 15:55:00
11:15 AM,52.0,32.5,48,29.87,10.0,West,16.1,26.5,N/A,,Clear,260,2013-10-26 16:15:00
11:35 AM,52.2,32.9,48,29.88,10.0,West,16.1,25.3,N/A,,Clear,270,2013-10-26 16:35:00
11:55 AM,52.3,32.7,47,29.88,10.0,West,16.1,20.7,N/A,,Clear,270,2013-10-26 16:55:00
12:15 PM,53.8,33.6,46,29.88,10.0,West,16.1,-,N/A,,Clear,270,2013-10-26 17:15:00
12:35 PM,53.1,33.6,48,29.88,10.0,West,17.3,21.9,N/A,,Scattered Clouds,280,2013-10-26 17:35:00
12:55 PM,54.1,34.3,47,29.88,10.0,WNW,13.8,23.0,N/A,,Mostly Cloudy,300,2013-10-26 17:55:00
1:15 PM,54.7,34.0,46,29.88,10.0,WNW,17.3,21.9,N/A,,Mostly Cloudy,290,2013-10-26 18:15:00
1:35 PM,54.7,34.5,47,29.88,10.0,WNW,10.4,19.6,N/A,,Overcast,300,2013-10-26 18:35:00
1:55 PM,52.0,33.3,49,29.90,10.0,WNW,11.5,18.4,N/A,,Mostly Cloudy,300,2013-10-26 18:55:00
2:15 PM,52.0,32.2,47,29.90,10.0,WNW,11.5,18.4,N/A,,Mostly Cloudy,290,2013-10-26 19:15:00
2:35 PM,53.8,31.8,43,29.91,10.0,WNW,16.1,19.6,N/A,,Overcast,300,2013-10-26 19:35:00
2:55 PM,52.9,31.3,44,29.91,10.0,WNW,10.4,-,N/A,,Overcast,290,2013-10-26 19:55:00
3:15 PM,52.9,29.5,41,29.92,10.0,WNW,12.7,20.7,N/A,,Mostly Cloudy,290,2013-10-26 20:15:00
3:35 PM,52.9,29.7,41,29.93,10.0,NW,15.0,23.0,N/A,,Overcast,320,2013-10-26 20:35:00
3:55 PM,52.2,30.2,43,29.95,10.0,NW,15.0,18.4,N/A,,Overcast,320,2013-10-26 20:55:00
4:15 PM,52.0,29.1,41,29.96,10.0,NW,15.0,20.7,N/A,,Overcast,320,2013-10-26 21:15:00
4:35 PM,50.9,28.9,43,29.97,10.0,NNW,10.4,21.9,N/A,,Overcast,330,2013-10-26 21:35:00
4:55 PM,50.9,29.1,43,29.98,10.0,NNW,8.1,-,N/A,,Overcast,330,2013-10-26 21:55:00
5:15 PM,50.5,27.9,42,29.99,10.0,NW,12.7,18.4,N/A,,Overcast,320,2013-10-26 22:15:00
5:35 PM,50.0,27.5,42,29.99,10.0,NW,10.4,-,N/A,,Overcast,320,2013-10-26 22:35:00
5:55 PM,49.3,27.1,42,30.00,10.0,NW,9.2,-,N/A,,Mostly Cloudy,320,2013-10-26 22:55:00
6:15 PM,48.4,27.1,44,30.01,10.0,NW,5.8,16.1,N/A,,Scattered Clouds,320,2013-10-26 23:15:00
6:35 PM,47.3,27.5,46,30.02,10.0,NW,4.6,-,N/A,,Scattered Clouds,310,2013-10-26 23:35:00
6:55 PM,46.4,27.7,48,30.02,10.0,NW,5.8,-,N/A,,Scattered Clouds,310,2013-10-26 23:55:00
7:15 PM,45.5,27.7,50,30.03,10.0,NW,4.6,-,N/A,,Clear,310,2013-10-27 00:15:00
7:35 PM,44.6,27.7,52,30.04,10.0,NW,4.6,-,N/A,,Clear,320,2013-10-27 00:35:00
7:55 PM,43.9,27.1,52,30.04,10.0,NNW,4.6,-,N/A,,Clear,330,2013-10-27 00:55:00
8:15 PM,43.0,26.6,52,30.05,10.0,WNW,4.6,-,N/A,,Clear,290,2013-10-27 01:15:00
8:35 PM,42.1,26.6,54,30.05,10.0,NW,5.8,-,N/A,,Clear,310,2013-10-27 01:35:00
8:55 PM,40.8,26.6,57,30.06,10.0,WNW,4.6,-,N/A,,Clear,290,2013-10-27 01:55:00
9:15 PM,41.0,26.6,57,30.07,10.0,WNW,3.5,-,N/A,,Clear,290,2013-10-27 02:15:00
9:35 PM,38.7,27.3,64,30.08,10.0,West,4.6,-,N/A,,Clear,280,2013-10-27 02:35:00
9:55 PM,38.7,27.1,63,30.08,10.0,Calm,Calm,-,N/A,,Clear,0,2013-10-27 02:55:00
10:15 PM,37.8,27.3,66,30.08,10.0,Calm,Calm,-,N/A,,Clear,0,2013-10-27 03:15:00
10:35 PM,33.3,26.4,76,30.09,10.0,West,3.5,-,N/A,,Clear,260,2013-10-27 03:35:00
10:55 PM,32.0,25.7,78,30.09,10.0,Calm,Calm,-,N/A,,Clear,0,2013-10-27 03:55:00
11:15 PM,33.3,26.2,75,30.08,10.0,Calm,Calm,-,N/A,,Clear,0,2013-10-27 04:15:00
11:35 PM,32.4,26.4,79,30.08,10.0,Calm,Calm,-,N/A,,Clear,0,2013-10-27 04:35:00
11:55 PM,32.0,27.0,82,30.07,10.0,Calm,Calm,-,N/A,,Clear,0,2013-10-27 04:55:00